• In Uzbekistan
  • List of Countries
  • For 7 days
  • Water Temperature
  • Satellite Maps
  • Weather Map
  • Weather Widgets
  • user-avatar
    Login

    Hourly Weather Wien

    Today, 25 March, Saturday

    Time Temperature Precipitation Wind Pressure Humidity
    00:00 +3°C° 0 mm 3 mps 752 mmHg 86%
    01:00 +3°C° 0 mm 3 mps 752 mmHg 88%
    02:00 +2°C° 0 mm 3 mps 752 mmHg 88%
    03:00 +2°C° 0 mm 3 mps 752 mmHg 89%
    04:00 +2°C° 0 mm 3 mps 752 mmHg 89%
    05:00 +2°C° 0 mm 3 mps 752 mmHg 87%
    06:00 +3°C° 0 mm 2 mps 752 mmHg 86%
    07:00 +4°C° 0 mm 2 mps 752 mmHg 81%
    08:00 +6°C° 0 mm 2 mps 752 mmHg 75%
    09:00 +7°C° 0 mm 2 mps 751 mmHg 68%
    10:00 +9°C° 0 mm 2 mps 751 mmHg 61%
    11:00 +10°C° 0 mm 2 mps 751 mmHg 57%
    12:00 +12°C° 0 mm 2 mps 750 mmHg 53%
    13:00 +13°C° 0 mm 2 mps 750 mmHg 48%
    14:00 +13°C° 0 mm 2 mps 749 mmHg 48%
    15:00 +13°C° 0 mm 2 mps 749 mmHg 48%
    16:00 +13°C° 0 mm 2 mps 748 mmHg 48%
    17:00 +10°C° 0 mm 2 mps 748 mmHg 54%
    18:00 +9°C° 0 mm 1 mps 747 mmHg 61%
    19:00 +7°C° 0 mm 1 mps 747 mmHg 67%
    20:00 +7°C° 0 mm 1 mps 747 mmHg 69%
    21:00 +6°C° 0 mm 2 mps 747 mmHg 70%
    22:00 +5°C° 0 mm 2 mps 747 mmHg 71%
    23:00 +5°C° 0 mm 2 mps 747 mmHg 74%

    Tomorrow, 26 March, Sunday

    Time Temperature Precipitation Wind Pressure Humidity
    00:00 +5°C° 0 mm 2 mps 747 mmHg 77%
    01:00 +3°C° 0 mm 3 mps 746 mmHg 79%
    02:00 +3°C° 0 mm 3 mps 746 mmHg 82%
    03:00 +2°C° 0 mm 3 mps 746 mmHg 84%
    04:00 +2°C° 0 mm 3 mps 746 mmHg 87%
    05:00 +2°C° 0 mm 3 mps 746 mmHg 85%
    06:00 +2°C° 0 mm 3 mps 747 mmHg 84%
    07:00 +3°C° 0 mm 3 mps 747 mmHg 83%
    08:00 +4°C° 0 mm 4 mps 748 mmHg 74%
    09:00 +5°C° 0 mm 5 mps 748 mmHg 65%
    10:00 +6°C° 0 mm 5 mps 748 mmHg 56%
    11:00 +7°C° 0 mm 5 mps 748 mmHg 54%
    12:00 +7°C° 0 mm 5 mps 749 mmHg 51%
    13:00 +8°C° 0 mm 5 mps 749 mmHg 48%
    14:00 +8°C° 0 mm 5 mps 749 mmHg 49%
    15:00 +8°C° 0 mm 5 mps 749 mmHg 50%
    16:00 +8°C° 0 mm 5 mps 749 mmHg 51%
    17:00 +6°C° 0 mm 4 mps 749 mmHg 59%
    18:00 +5°C° 0 mm 3 mps 749 mmHg 66%
    19:00 +4°C° 0 mm 2 mps 750 mmHg 74%
    20:00 +3°C° 0 mm 2 mps 750 mmHg 76%
    21:00 +3°C° 0 mm 2 mps 751 mmHg 79%
    22:00 +2°C° 0 mm 2 mps 751 mmHg 81%
    23:00 +2°C° 0 mm 2 mps 752 mmHg 83%

    Day after tomorrow, 27 March, Monday

    Time Temperature Precipitation Wind Pressure Humidity
    00:00 +1°C° 0 mm 2 mps 752 mmHg 84%
    01:00 +1°C° 0 mm 2 mps 752 mmHg 86%
    02:00 +2°C° 0 mm 1 mps 752 mmHg 87%
    03:00 +1°C° 0 mm 1 mps 752 mmHg 89%
    04:00 +1°C° 0 mm 1 mps 752 mmHg 90%
    05:00 +2°C° 0 mm 1 mps 752 mmHg 85%
    06:00 +3°C° 0 mm 1 mps 752 mmHg 80%
    07:00 +4°C° 0 mm 1 mps 752 mmHg 75%
    08:00 +5°C° 0 mm 1 mps 752 mmHg 67%
    09:00 +7°C° 0 mm 1 mps 752 mmHg 59%
    10:00 +9°C° 0 mm 1 mps 752 mmHg 51%
    11:00 +10°C° 0 mm 1 mps 752 mmHg 48%
    12:00 +11°C° 0 mm 1 mps 752 mmHg 45%
    13:00 +12°C° 0 mm 2 mps 751 mmHg 41%
    14:00 +12°C° 0 mm 2 mps 751 mmHg 42%
    15:00 +12°C° 0 mm 2 mps 751 mmHg 42%
    16:00 +12°C° 0 mm 2 mps 750 mmHg 43%
    17:00 +10°C° 0 mm 1 mps 750 mmHg 50%
    18:00 +8°C° 0 mm 1 mps 750 mmHg 57%
    19:00 +6°C° 0 mm 1 mps 750 mmHg 64%
    20:00 +5°C° 0 mm 1 mps 751 mmHg 65%
    21:00 +5°C° 0 mm 1 mps 751 mmHg 66%
    22:00 +5°C° 0 mm 1 mps 751 mmHg 66%
    23:00 +4°C° 0 mm 1 mps 751 mmHg 66%

    28 March, Tuesday

    Time Temperature Precipitation Wind Pressure Humidity
    00:00 +4°C° 0 mm 1 mps 751 mmHg 67%
    01:00 +4°C° 0 mm 1 mps 750 mmHg 67%
    02:00 +4°C° 0 mm 1 mps 750 mmHg 66%
    03:00 +4°C° 0 mm 1 mps 750 mmHg 65%
    04:00 +3°C° 0 mm 2 mps 750 mmHg 65%
    05:00 +4°C° 0 mm 2 mps 750 mmHg 63%
    06:00 +4°C° 0 mm 2 mps 750 mmHg 62%
    07:00 +5°C° 0 mm 2 mps 750 mmHg 61%
    08:00 +8°C° 0 mm 2 mps 750 mmHg 55%
    09:00 +10°C° 0 mm 2 mps 750 mmHg 49%
    10:00 +14°C° 0 mm 2 mps 750 mmHg 43%
    11:00 +15°C° 0 mm 2 mps 750 mmHg 42%
    12:00 +16°C° 0 mm 2 mps 750 mmHg 40%
    13:00 +17°C° 0 mm 2 mps 749 mmHg 39%
    14:00 +17°C° 0 mm 2 mps 749 mmHg 41%
    15:00 +17°C° 0 mm 2 mps 749 mmHg 43%
    16:00 +17°C° 0 mm 2 mps 749 mmHg 45%
    17:00 +14°C° 0 mm 2 mps 749 mmHg 54%
    18:00 +12°C° 0 mm 2 mps 749 mmHg 63%
    19:00 +8°C° 0 mm 2 mps 749 mmHg 73%
    20:00 +8°C° 0 mm 2 mps 749 mmHg 75%
    21:00 +8°C° 0 mm 1 mps 749 mmHg 78%
    22:00 +8°C° 0 mm 1 mps 749 mmHg 80%
    23:00 +7°C° 0 mm 1 mps 749 mmHg 81%

    29 March, Wednesday

    Time Temperature Precipitation Wind Pressure Humidity
    00:00 +7°C° 0 mm 1 mps 749 mmHg 81%
    01:00 +7°C° 0 mm 1 mps 749 mmHg 82%
    02:00 +7°C° 0 mm 1 mps 749 mmHg 83%
    03:00 +6°C° 0 mm 1 mps 749 mmHg 83%
    04:00 +6°C° 0 mm 1 mps 749 mmHg 84%
    05:00 +7°C° 0 mm 1 mps 749 mmHg 82%
    06:00 +8°C° 0 mm 1 mps 749 mmHg 79%
    07:00 +9°C° 0 mm 1 mps 749 mmHg 77%
    08:00 +10°C° 0 mm 2 mps 749 mmHg 70%
    09:00 +13°C° 0 mm 2 mps 749 mmHg 63%
    10:00 +16°C° 0 mm 3 mps 749 mmHg 56%
    11:00 +17°C° 0 mm 3 mps 749 mmHg 53%
    12:00 +18°C° 0 mm 3 mps 749 mmHg 49%
    13:00 +19°C° 0 mm 3 mps 748 mmHg 46%
    14:00 +19°C° 0 mm 3 mps 748 mmHg 47%
    15:00 +18°C° 0 mm 3 mps 748 mmHg 47%
    16:00 +18°C° 0 mm 3 mps 748 mmHg 48%
    17:00 +16°C° 0 mm 2 mps 748 mmHg 56%
    18:00 +14°C° 0 mm 2 mps 748 mmHg 65%
    19:00 +10°C° 0 mm 2 mps 748 mmHg 73%
    20:00 +10°C° 0 mm 2 mps 748 mmHg 75%
    21:00 +9°C° 0 mm 2 mps 748 mmHg 78%
    22:00 +9°C° 0 mm 2 mps 749 mmHg 80%
    23:00 +8°C° 0 mm 2 mps 749 mmHg 82%

    30 March, Thursday

    Time Temperature Precipitation Wind Pressure Humidity
    00:00 +8°C° 0 mm 2 mps 749 mmHg 83%
    01:00 +8°C° 0 mm 2 mps 749 mmHg 84%
    02:00 +8°C° 0 mm 2 mps 749 mmHg 85%
    03:00 +7°C° 0 mm 2 mps 749 mmHg 85%
    04:00 +7°C° 0 mm 2 mps 749 mmHg 86%
    05:00 +8°C° 0 mm 2 mps 749 mmHg 84%
    06:00 +8°C° 0 mm 2 mps 749 mmHg 82%
    07:00 +10°C° 0 mm 1 mps 749 mmHg 80%
    08:00 +12°C° 0 mm 1 mps 750 mmHg 72%
    09:00 +14°C° 0 mm 2 mps 750 mmHg 65%
    10:00 +16°C° 0 mm 2 mps 750 mmHg 58%
    11:00 +18°C° 0 mm 1 mps 749 mmHg 54%
    12:00 +19°C° 0 mm 1 mps 749 mmHg 51%
    13:00 +20°C° 0 mm 1 mps 749 mmHg 47%
    14:00 +19°C° 0 mm 2 mps 749 mmHg 48%
    15:00 +19°C° 0 mm 2 mps 748 mmHg 48%
    16:00 +19°C° 0 mm 2 mps 748 mmHg 49%
    17:00 +17°C° 0 mm 2 mps 748 mmHg 57%
    18:00 +14°C° 0 mm 2 mps 748 mmHg 65%
    19:00 +12°C° 0 mm 2 mps 748 mmHg 73%
    20:00 +12°C° 0 mm 2 mps 748 mmHg 75%
    21:00 +10°C° 0 mm 2 mps 749 mmHg 77%
    22:00 +10°C° 0 mm 2 mps 749 mmHg 78%
    23:00 +10°C° 0 mm 2 mps 749 mmHg 79%
    Show more